SHIYAN 24C 01 (58650 NORAD) Tracking and Keplerian Element Data

This shows tracking and keplerian element data for the satellite.

Feedback or suggestion? Click here.




ElementValue
Catalog58650
NameSHIYAN 24C 01
Epoch Orbit274
Epoch Day13.18362843
Epoch Year2024
RAAN21.3568
Inclination97.3337
Eccentricity0.0010805
Argument of Perigee203.6397
Mean Anonmoly156.4336
Mean Motion15.06582648
Decay Rate4.658E-05
L11 58650U 23206A 24013.18362843 .00004658 00000+0 31817-3 0 9997
L22 58650 97.3337 21.3568 0010805 203.6397 156.4336 15.06582648 2743



Live tracking and technical data element details for SHIYAN 24C 01 (NORAD 58650). SHIYAN 24C 01 can be tracked NOW for your location showing map with azimuth and elevation plus other details from your city location.







IsCatalogInMostPopularTable: catalog: 58650, numindb: 22
Update: records affected: 1



GetName: 58650 SHIYAN 24C 01

Hit Count: updated at: Wed, 17 Apr 2024 01:51:37 GMT